This demonstration page uses our WeatherBlox Daily Observations layout. Learn more.

Left ArrowRight Arrow

Hourly Observations for August 30, 2022

Temp ( °F °C ) Dew Point ( °F °C ) Humidity (%) Winds ( mph kmh ) Pressure ( in mb ) Visibility ( mi km ) Precip ( " mm )
12:55 am 00:55 Clear 69 20.6 61 16.2 76 76 Calm 30.05 1018 10 16 0.00 0.00
1:55 am 01:55 Clear 69 20.8 60 15.6 72 72 NW 3 6 30.06 1018 10 16 0.00 0.00
2:55 am 02:55 Clear 67 19.2 60 15.5 79 79 Calm 30.08 1019 10 16 0.00 0.00
3:55 am 03:55 Clear 65 18.3 58 14.6 79 79 NNW 3 6 30.08 1019 10 16 0.00 0.00
4:55 am 04:55 Clear 64 17.9 58 14.6 81 81 WNW 5 7 30.09 1019 10 16 0.00 0.00
5:55 am 05:55 Clear 63 17.1 57 14 82 82 WNW 3 6 30.10 1019 10 16 0.00 0.00
6:55 am 06:55 Sunny 63 17 57 13.7 81 81 Calm 30.12 1020 10 16 0.00 0.00
7:55 am 07:55 Sunny 63 17.3 57 14 81 81 WNW 3 6 30.16 1021 10 16 0.00 0.00
8:55 am 08:55 Sunny 71 21.6 53 11.9 54 54 N 6 9 30.16 1021 10 16 0.00 0.00
9:55 am 09:55 Sunny 76 24.2 53 11.5 45 45 N 8 13 30.17 1022 10 16 0.00 0.00
10:55 am 10:55 Sunny 78 25.5 52 11.3 41 41 N 6 9 30.18 1022 10 16 0.00 0.00
11:55 am 11:55 Sunny 81 27.3 49 9.6 33 33 N 7 11 30.18 1022 10 16 0.00 0.00
12:55 pm 12:55 Sunny 83 28.1 51 10.3 33 33 N 5 7 30.17 1022 10 16 0.00 0.00
1:55 pm 13:55 Sunny 84 29 48 9 29 29 NNE 7 11 30.12 1020 10 16 0.00 0.00
2:55 pm 14:55 Sunny 84 29 48 9.1 29 29 NNE 9 15 30.14 1021 10 16 0.00 0.00
3:55 pm 15:55 Sunny 85 29.5 50 10.1 30 30 NNE 7 11 30.12 1020 10 16 0.00 0.00
4:55 pm 16:55 Sunny 85 29.7 51 10.3 30 30 N 9 15 30.11 1020 10 16 0.00 0.00
5:55 pm 17:55 Sunny 85 29.4 52 11 32 32 ENE 6 9 30.10 1019 10 16 0.00 0.00
6:55 pm 18:55 Sunny 83 28.3 51 10.5 33 33 NE 3 6 30.11 1020 10 16 0.00 0.00
7:55 pm 19:55 Sunny 80 26.4 52 10.9 38 38 Calm 30.11 1020 10 16 0.00 0.00
8:55 pm 20:55 Clear 73 22.7 53 11.7 50 50 Calm 30.12 1020 10 16 0.00 0.00
9:55 pm 21:55 Clear 70 21.2 57 13.9 63 63 Calm 30.13 1020 10 16 0.00 0.00
10:55 pm 22:55 Clear 70 20.9 56 13.6 63 63 Calm 30.13 1020 10 16 0.00 0.00
11:55 pm 23:55 Clear 67 19.7 58 14.3 71 71 SE 3 6 30.14 1021 10 16 0.00 0.00

Powered by AerisWeather